SIA966 WSSS-WIII

Flight info

Callsign SIA966
Flight time 1h 12m
Altitude 33000
Route ANITO7A ANITO B470 BUNIK
Aircraft A359/H-SDE1E2E3GHIJ1J2J3J5M1P2RWXYZ/LB1D1

Departure

Time 2026-05-01 07:26
Airport Singapore Changi Airport (WSSS)

Arrival

Time 2026-05-01 08:38
Airport Soekarno-Hatta International Airport (WIII)
Time Latitude Longitude Altitude Speed Heading
2026-05-01 07:23 1.36046 103.99637 36 ft 15 kts 23°
2026-05-01 07:23 1.36238 103.99728 36 ft 8 kts 56°
2026-05-01 07:24 1.36237 103.99784 36 ft 9 kts 110°
2026-05-01 07:24 1.36211 103.99847 36 ft 11 kts 112°
2026-05-01 07:24 1.36179 103.99889 36 ft 4 kts 174°
2026-05-01 07:24 1.36165 103.99884 36 ft 0 kts 204°
2026-05-01 07:25 1.36031 103.99827 37 ft 52 kts 203°
2026-05-01 07:25 1.35472 103.99593 37 ft 120 kts 202°
2026-05-01 07:26 1.34518 103.99188 37 ft 176 kts 202°
2026-05-01 07:26 1.33348 103.98692 634 ft 181 kts 202°
2026-05-01 07:26 1.32188 103.98199 1336 ft 184 kts 201°
2026-05-01 07:26 1.30944 103.97676 1601 ft 211 kts 201°
2026-05-01 07:27 1.29497 103.97068 1800 ft 240 kts 202°
2026-05-01 07:27 1.27874 103.96382 2162 ft 262 kts 202°
2026-05-01 07:27 1.26171 103.95667 2829 ft 268 kts 202°
2026-05-01 07:27 1.24430 103.94951 3577 ft 273 kts 200°
2026-05-01 07:28 1.22565 103.94594 4275 ft 276 kts 177°
2026-05-01 07:28 1.20660 103.94895 4994 ft 279 kts 165°
2026-05-01 07:28 1.18768 103.95371 5701 ft 282 kts 164°
2026-05-01 07:28 1.16857 103.95864 6432 ft 286 kts 164°
2026-05-01 07:29 1.14948 103.96348 7138 ft 288 kts 164°
2026-05-01 07:29 1.12995 103.96838 7916 ft 291 kts 164°
2026-05-01 07:29 1.11050 103.97423 8682 ft 292 kts 154°
2026-05-01 07:29 1.09344 103.98465 9484 ft 291 kts 141°
2026-05-01 07:30 1.07724 103.99704 10197 ft 296 kts 139°
2026-05-01 07:30 1.06057 104.01010 10569 ft 314 kts 139°
2026-05-01 07:30 1.04284 104.02400 10870 ft 333 kts 139°
2026-05-01 07:30 1.02663 104.04112 11119 ft 347 kts 120°
2026-05-01 07:31 1.01578 104.06303 11490 ft 357 kts 111°
2026-05-01 07:31 0.98658 104.13321 13218 ft 370 kts 111°
2026-05-01 07:32 0.96650 104.18114 14285 ft 377 kts 111°
2026-05-01 07:32 0.95633 104.20536 14804 ft 380 kts 111°
2026-05-01 07:33 0.93150 104.25225 15864 ft 385 kts 120°
2026-05-01 07:33 0.91726 104.27507 16377 ft 388 kts 120°
2026-05-01 07:33 0.88843 104.32118 17377 ft 394 kts 121°
2026-05-01 07:34 0.87388 104.34450 17865 ft 397 kts 121°
2026-05-01 07:34 0.84449 104.39166 18738 ft 402 kts 121°
2026-05-01 07:34 0.82967 104.41547 19177 ft 404 kts 121°
2026-05-01 07:35 0.81469 104.43932 19632 ft 407 kts 122°
2026-05-01 07:35 0.79842 104.46253 20057 ft 409 kts 124°
2026-05-01 07:35 0.78174 104.48544 20490 ft 411 kts 124°
2026-05-01 07:35 0.76484 104.50880 20945 ft 414 kts 124°
2026-05-01 07:36 0.74803 104.53220 21380 ft 416 kts 124°
2026-05-01 07:36 0.72951 104.55450 21812 ft 420 kts 134°
2026-05-01 07:36 0.70603 104.57138 22233 ft 426 kts 151°
2026-05-01 07:36 0.67813 104.58197 22687 ft 431 kts 161°
2026-05-01 07:37 0.62017 104.59888 23494 ft 437 kts 161°
2026-05-01 07:37 0.59093 104.60743 23829 ft 440 kts 161°
2026-05-01 07:37 0.56147 104.61610 24152 ft 442 kts 161°
2026-05-01 07:38 0.53182 104.62487 24477 ft 445 kts 161°
2026-05-01 07:38 0.50206 104.63370 24832 ft 448 kts 161°
2026-05-01 07:38 0.44195 104.65161 25571 ft 453 kts 161°
2026-05-01 07:39 0.41158 104.66058 25953 ft 456 kts 162°
2026-05-01 07:39 0.38100 104.66960 26346 ft 460 kts 162°
2026-05-01 07:39 0.31921 104.68786 27162 ft 466 kts 162°
2026-05-01 07:40 0.28805 104.69709 27564 ft 469 kts 162°
2026-05-01 07:40 0.25664 104.70638 27958 ft 472 kts 162°
2026-05-01 07:40 0.22507 104.71573 28353 ft 475 kts 162°
2026-05-01 07:40 0.19325 104.72515 28740 ft 478 kts 162°
2026-05-01 07:41 0.16123 104.73463 29123 ft 482 kts 162°
2026-05-01 07:41 0.12897 104.74423 29496 ft 485 kts 162°
2026-05-01 07:41 0.06437 104.76341 30181 ft 490 kts 162°
2026-05-01 07:42 0.03163 104.77312 30526 ft 492 kts 162°
2026-05-01 07:42 -0.00123 104.78287 30895 ft 493 kts 162°
2026-05-01 07:42 -0.03413 104.79264 31258 ft 493 kts 161°
2026-05-01 07:42 -0.06712 104.80243 31574 ft 495 kts 161°
2026-05-01 07:43 -0.10016 104.81224 31886 ft 496 kts 161°
2026-05-01 07:43 -0.13338 104.82211 32177 ft 498 kts 161°
2026-05-01 07:43 -0.19999 104.84189 32740 ft 501 kts 161°
2026-05-01 07:44 -0.26620 104.86245 33403 ft 499 kts 156°
2026-05-01 07:44 -0.32640 104.89496 34210 ft 489 kts 145°
2026-05-01 07:45 -0.35479 104.91371 34533 ft 488 kts 144°
2026-05-01 07:45 -0.38277 104.93279 34817 ft 487 kts 143°
2026-05-01 07:45 -0.41066 104.95201 35098 ft 487 kts 143°
2026-05-01 07:45 -0.43849 104.97117 35425 ft 485 kts 144°
2026-05-01 07:46 -0.46624 104.99018 35756 ft 483 kts 144°
2026-05-01 07:46 -0.49402 105.00911 36063 ft 482 kts 144°
2026-05-01 07:46 -0.54937 105.04663 36683 ft 479 kts 144°
2026-05-01 07:47 -0.57697 105.06530 36833 ft 480 kts 144°
2026-05-01 07:47 -0.63215 105.10262 36852 ft 478 kts 144°
2026-05-01 07:48 -0.71478 105.15852 36851 ft 478 kts 144°
2026-05-01 07:48 -0.76988 105.19581 36853 ft 478 kts 144°
2026-05-01 07:49 -0.85456 105.24848 36853 ft 480 kts 154°
2026-05-01 07:50 -0.91844 105.26857 36853 ft 483 kts 164°
2026-05-01 07:50 -1.01697 105.28881 36853 ft 485 kts 167°
2026-05-01 07:51 -1.08321 105.30171 36855 ft 485 kts 166°
2026-05-01 07:52 -1.18259 105.32167 36856 ft 486 kts 166°
2026-05-01 07:52 -1.24888 105.33515 36856 ft 486 kts 166°
2026-05-01 07:53 -1.34832 105.35538 36856 ft 486 kts 166°
2026-05-01 07:53 -1.41459 105.36885 36856 ft 486 kts 166°
2026-05-01 07:55 -1.58048 105.40255 36856 ft 487 kts 166°
2026-05-01 07:56 -1.73541 105.43403 36856 ft 487 kts 166°
2026-05-01 07:57 -1.83506 105.45429 36856 ft 487 kts 166°
2026-05-01 07:58 -1.96845 105.48141 36855 ft 490 kts 167°
2026-05-01 07:59 -2.10219 105.50860 36857 ft 490 kts 167°
2026-05-01 08:00 -2.30286 105.54940 36854 ft 491 kts 166°
2026-05-01 08:01 -2.43621 105.57653 36849 ft 491 kts 166°
2026-05-01 08:02 -2.53652 105.59693 36843 ft 491 kts 166°
2026-05-01 08:03 -2.63693 105.61736 36845 ft 491 kts 166°
2026-05-01 08:03 -2.73730 105.63778 36843 ft 491 kts 166°
2026-05-01 08:04 -2.87118 105.66504 36840 ft 490 kts 166°
2026-05-01 08:05 -2.97150 105.68546 36841 ft 491 kts 166°
2026-05-01 08:06 -3.07203 105.70593 36841 ft 492 kts 166°
2026-05-01 08:07 -3.20620 105.73326 36842 ft 492 kts 166°
2026-05-01 08:08 -3.30681 105.75375 36843 ft 492 kts 166°
2026-05-01 08:09 -3.44049 105.78099 36849 ft 492 kts 166°
2026-05-01 08:09 -3.50759 105.79467 36851 ft 492 kts 166°
2026-05-01 08:10 -3.64173 105.82202 36851 ft 492 kts 166°
2026-05-01 08:11 -3.77642 105.84949 36851 ft 494 kts 166°
2026-05-01 08:12 -3.87755 105.87011 36850 ft 494 kts 166°
2026-05-01 08:13 -3.97824 105.89065 36851 ft 494 kts 166°
2026-05-01 08:13 -4.07942 105.91130 36854 ft 494 kts 166°
2026-05-01 08:14 -4.14685 105.92507 36853 ft 494 kts 166°
2026-05-01 08:14 -4.21426 105.93883 36855 ft 494 kts 166°
2026-05-01 08:15 -4.31545 105.95949 36859 ft 495 kts 166°
2026-05-01 08:16 -4.38279 105.97324 36757 ft 490 kts 166°
2026-05-01 08:16 -4.41611 105.98004 36113 ft 488 kts 166°
2026-05-01 08:16 -4.44954 105.98687 35305 ft 492 kts 166°
2026-05-01 08:16 -4.48129 105.99337 34571 ft 494 kts 166°
2026-05-01 08:17 -4.51552 106.00037 33788 ft 497 kts 166°
2026-05-01 08:17 -4.54952 106.00733 32881 ft 500 kts 166°
2026-05-01 08:17 -4.58368 106.01431 32018 ft 502 kts 167°
2026-05-01 08:17 -4.61801 106.02133 31158 ft 505 kts 167°
2026-05-01 08:18 -4.65244 106.02837 30382 ft 505 kts 167°
2026-05-01 08:18 -4.72104 106.04238 29019 ft 499 kts 167°
2026-05-01 08:19 -4.78852 106.05615 27741 ft 491 kts 167°
2026-05-01 08:19 -4.82187 106.06297 27111 ft 487 kts 167°
2026-05-01 08:19 -4.85493 106.06973 26556 ft 483 kts 167°
2026-05-01 08:19 -4.88776 106.07644 25970 ft 478 kts 167°
2026-05-01 08:20 -4.92022 106.08308 25393 ft 474 kts 167°
2026-05-01 08:20 -4.95242 106.08967 24822 ft 470 kts 167°
2026-05-01 08:20 -4.98434 106.09620 24267 ft 466 kts 167°
2026-05-01 08:20 -5.01604 106.10269 23720 ft 463 kts 167°
2026-05-01 08:21 -5.04747 106.10913 23103 ft 459 kts 167°
2026-05-01 08:21 -5.07817 106.11541 22472 ft 455 kts 167°
2026-05-01 08:21 -5.10903 106.12173 21864 ft 450 kts 167°
2026-05-01 08:21 -5.13945 106.12795 21267 ft 446 kts 167°
2026-05-01 08:22 -5.16972 106.13415 20667 ft 442 kts 167°
2026-05-01 08:22 -5.19969 106.14029 20076 ft 438 kts 167°
2026-05-01 08:22 -5.22936 106.14636 19500 ft 434 kts 167°
2026-05-01 08:22 -5.25882 106.15240 18928 ft 430 kts 167°
2026-05-01 08:23 -5.28801 106.15837 18374 ft 426 kts 167°
2026-05-01 08:23 -5.31691 106.16429 17765 ft 422 kts 167°
2026-05-01 08:23 -5.34556 106.17017 17152 ft 418 kts 167°
2026-05-01 08:23 -5.37388 106.17597 16562 ft 413 kts 167°
2026-05-01 08:24 -5.40195 106.18172 15978 ft 409 kts 167°
2026-05-01 08:24 -5.42968 106.18741 15392 ft 405 kts 167°
2026-05-01 08:24 -5.45720 106.19305 14826 ft 400 kts 167°
2026-05-01 08:24 -5.48437 106.19862 14262 ft 396 kts 167°
2026-05-01 08:25 -5.51127 106.20413 13692 ft 393 kts 167°
2026-05-01 08:25 -5.53754 106.20952 13059 ft 389 kts 167°
2026-05-01 08:25 -5.56396 106.21494 12399 ft 386 kts 167°
2026-05-01 08:25 -5.59014 106.22031 11754 ft 384 kts 167°
2026-05-01 08:26 -5.61620 106.22567 11138 ft 381 kts 167°
2026-05-01 08:26 -5.64179 106.23091 10838 ft 368 kts 167°
2026-05-01 08:26 -5.66639 106.23594 10626 ft 355 kts 167°
2026-05-01 08:26 -5.69012 106.24078 10425 ft 341 kts 167°
2026-05-01 08:27 -5.71244 106.24535 10232 ft 329 kts 167°
2026-05-01 08:27 -5.73445 106.24986 10070 ft 316 kts 166°
2026-05-01 08:27 -5.75560 106.25421 9896 ft 305 kts 167°
2026-05-01 08:27 -5.77618 106.25844 9600 ft 299 kts 167°
2026-05-01 08:28 -5.79648 106.26262 9191 ft 297 kts 167°
2026-05-01 08:28 -5.81668 106.26678 8766 ft 295 kts 167°
2026-05-01 08:28 -5.83673 106.27090 8377 ft 293 kts 167°
2026-05-01 08:28 -5.85672 106.27500 7941 ft 292 kts 166°
2026-05-01 08:29 -5.87660 106.27909 7621 ft 291 kts 166°
2026-05-01 08:29 -5.89637 106.28316 7373 ft 290 kts 167°
2026-05-01 08:29 -5.91609 106.28720 7134 ft 289 kts 167°
2026-05-01 08:29 -5.93575 106.29124 6897 ft 287 kts 167°
2026-05-01 08:30 -5.95531 106.29526 6672 ft 287 kts 167°
2026-05-01 08:30 -5.97481 106.29926 6438 ft 286 kts 167°
2026-05-01 08:30 -5.99429 106.30327 6202 ft 285 kts 167°
2026-05-01 08:30 -6.01375 106.30725 5962 ft 285 kts 167°
2026-05-01 08:31 -6.03289 106.31191 5709 ft 280 kts 157°
2026-05-01 08:31 -6.04892 106.32220 5477 ft 273 kts 135°
2026-05-01 08:31 -6.06233 106.33569 5231 ft 273 kts 131°
2026-05-01 08:31 -6.07520 106.34965 4988 ft 273 kts 131°
2026-05-01 08:32 -6.08787 106.36378 4741 ft 271 kts 130°
2026-05-01 08:32 -6.10028 106.37764 4509 ft 270 kts 131°
2026-05-01 08:32 -6.11402 106.39048 4257 ft 270 kts 139°
2026-05-01 08:32 -6.12886 106.40227 3977 ft 267 kts 140°
2026-05-01 08:33 -6.14323 106.41340 3678 ft 260 kts 140°
2026-05-01 08:33 -6.15742 106.42432 3410 ft 253 kts 140°
2026-05-01 08:33 -6.16920 106.43685 3179 ft 244 kts 118°
2026-05-01 08:33 -6.17369 106.45257 3051 ft 229 kts 95°
2026-05-01 08:34 -6.17457 106.46809 2933 ft 216 kts 91°
2026-05-01 08:34 -6.17490 106.48276 2824 ft 204 kts 90°
2026-05-01 08:34 -6.17524 106.49645 2748 ft 191 kts 92°
2026-05-01 08:34 -6.17290 106.50916 2639 ft 185 kts 69°
2026-05-01 08:35 -6.16773 106.52096 2404 ft 184 kts 65°
2026-05-01 08:35 -6.16297 106.53278 2166 ft 180 kts 69°
2026-05-01 08:35 -6.15852 106.54437 1924 ft 175 kts 68°
2026-05-01 08:35 -6.15407 106.55555 1705 ft 169 kts 68°
2026-05-01 08:36 -6.14978 106.56637 1504 ft 165 kts 66°
2026-05-01 08:36 -6.14558 106.57694 1275 ft 160 kts 66°
2026-05-01 08:36 -6.14157 106.58705 1083 ft 153 kts 66°
2026-05-01 08:36 -6.13784 106.59646 889 ft 146 kts 66°
2026-05-01 08:37 -6.13417 106.60570 742 ft 140 kts 65°
2026-05-01 08:37 -6.13056 106.61481 562 ft 143 kts 65°
2026-05-01 08:37 -6.12682 106.62427 385 ft 146 kts 65°
2026-05-01 08:37 -6.12287 106.63382 203 ft 149 kts 64°
2026-05-01 08:38 -6.11911 106.64338 42 ft 144 kts 65°
2026-05-01 08:38 -6.11564 106.65193 36 ft 110 kts 68°
2026-05-01 08:38 -6.11384 106.65662 32 ft 57 kts 68°
2026-05-01 08:38 -6.11254 106.65998 32 ft 35 kts 77°
2026-05-01 08:39 -6.11251 106.66156 31 ft 10 kts 97°
2026-05-01 08:39 -6.11268 106.66225 31 ft 10 kts 116°
2026-05-01 08:39 -6.11321 106.66275 32 ft 12 kts 156°
2026-05-01 08:39 -6.11405 106.66309 31 ft 14 kts 158°
2026-05-01 08:40 -6.11574 106.66379 32 ft 9 kts 156°
2026-05-01 08:40 -6.11635 106.66409 31 ft 10 kts 140°
2026-05-01 08:40 -6.11637 106.66478 31 ft 11 kts 77°
2026-05-01 08:41 -6.11610 106.66558 31 ft 9 kts 86°
2026-05-01 08:41 -6.11632 106.66577 31 ft 6 kts 156°
2026-05-01 08:41 -6.11679 106.66596 31 ft 9 kts 157°
2026-05-01 08:41 -6.11693 106.66602 31 ft 1 kts 158°
2026-05-01 08:42 -6.11697 106.66604 31 ft 0 kts 158°